Overview Statistics Trail Chart Weather Telemetry Raw packets
 

This is the latest recevied weather packets stored in our database for station/object SV1JSO-13. If no packets are shown the sender has not sent any weather packets the latest 10 day(s).

<< 18 19 20 21 22 23 24 >>
Time Temp. Humidity Pressure Rain* Wind** Luminosity Snow
1788531001 31.67° C 34% 1007.8 hPa 0 mm - 352 W/m² -
1788530701 31.67° C 34% 1007.8 hPa 0 mm - 114 W/m² -
1788530401 31.67° C 34% 1007.7 hPa 0 mm - 381 W/m² -
1788530100 31.67° C 34% 1007.7 hPa 0 mm - 396 W/m² -
1788529801 31.67° C 33% 1007.8 hPa 0 mm - 407 W/m² -
1788529501 31.11° C 34% 1007.7 hPa 0 mm - 428 W/m² -
1788529201 31.67° C 33% 1007.7 hPa 0 mm - 442 W/m² -
1788528901 31.67° C 34% 1007.8 hPa 0 mm - 456 W/m² -
1788528601 31.67° C 34% 1007.8 hPa 0 mm - 466 W/m² -
1788528300 31.67° C 34% 1007.8 hPa 0 mm - 476 W/m² -
1788528000 31.67° C 33% 1008 hPa 0 mm - 484 W/m² -
1788527700 31.67° C 33% 1007.8 hPa 0 mm - 502 W/m² -
1788527401 31.67° C 33% 1007.9 hPa 0 mm - 510 W/m² -
1788527101 31.67° C 33% 1007.9 hPa 0 mm - 514 W/m² -
1788526801 31.67° C 33% 1007.8 hPa 0 mm - 541 W/m² -
1788526501 31.67° C 33% 1007.9 hPa 0 mm - 561 W/m² -
1788526201 31.67° C 32% 1007.7 hPa 0 mm - 564 W/m² -
1788525901 31.67° C 33% 1007.8 hPa 0 mm - 581 W/m² -
1788525600 31.67° C 33% 1007.7 hPa 0 mm - 592 W/m² -
1788525300 31.67° C 33% 1008 hPa 0 mm - 605 W/m² -
1788525001 31.67° C 32% 1007.7 hPa 0 mm - 626 W/m² -
1788524701 31.67° C 32% 1008 hPa 0 mm - 634 W/m² -
1788524401 31.67° C 32% 1008 hPa 0 mm - 644 W/m² -
1788524101 31.67° C 32% 1008 hPa 0 mm - 645 W/m² -
1788523801 31.67° C 31% 1008 hPa 0 mm - 652 W/m² -

* Rain latest hour (hover to see other rain measurements)
** Current wind speed in m/s (hover to see current wind gust speed)